ASL234 LYBE-LRTR

Flight info

Callsign ASL234
Flight time N/A
Altitude 19000
Route DONIV N188 MAVIT
Aircraft DH8D/M-SDE2E3FGRY/H

Departure

Time 2026-04-29 20:03
Airport Belgrade Nikola Tesla Airport (LYBE)

Arrival

Time N/A
Airport Timișoara Traian Vuia International Airport (LRTR)
Time Latitude Longitude Altitude Speed Heading
2026-04-29 20:03 44.74171 20.63594 18962 ft 367 kts 37°
2026-04-29 20:03 44.76028 20.66077 18927 ft 370 kts 38°
2026-04-29 20:03 44.77674 20.68286 18994 ft 366 kts 38°
2026-04-29 20:04 44.81016 20.72763 18962 ft 367 kts 38°
2026-04-29 20:04 44.82723 20.75049 18987 ft 364 kts 39°
2026-04-29 20:04 44.84937 20.78018 18955 ft 366 kts 38°
2026-04-29 20:04 44.86848 20.80585 18950 ft 367 kts 38°
2026-04-29 20:05 44.88464 20.82757 18974 ft 368 kts 38°
2026-04-29 20:05 44.90329 20.85258 18973 ft 373 kts 38°
2026-04-29 20:05 44.92202 20.87777 18962 ft 375 kts 38°
2026-04-29 20:05 44.94090 20.90318 18965 ft 379 kts 38°
2026-04-29 20:06 44.96021 20.92916 18960 ft 383 kts 38°
2026-04-29 20:06 44.97973 20.95548 18959 ft 385 kts 38°
2026-04-29 20:06 44.99846 20.98077 18963 ft 385 kts 38°
2026-04-29 20:06 45.01731 21.00625 18965 ft 384 kts 38°
2026-04-29 20:07 45.03626 21.03190 18953 ft 385 kts 38°
2026-04-29 20:07 45.05512 21.05744 18966 ft 383 kts 38°
2026-04-29 20:07 45.07455 21.08378 18947 ft 383 kts 38°
2026-04-29 20:07 45.09348 21.10943 18950 ft 383 kts 37°
2026-04-29 20:08 45.11244 21.13511 18937 ft 382 kts 38°
2026-04-29 20:08 45.12485 21.15204 18964 ft 383 kts 38°
2026-04-29 20:08 45.15027 21.18665 18977 ft 383 kts 38°
2026-04-29 20:08 45.16943 21.21272 18943 ft 385 kts 38°
2026-04-29 20:09 45.18872 21.23899 18936 ft 386 kts 38°
2026-04-29 20:09 45.20793 21.26520 18945 ft 383 kts 38°
2026-04-29 20:09 45.22759 21.29044 18793 ft 380 kts 30°
2026-04-29 20:09 45.25056 21.30486 18542 ft 347 kts
2026-04-29 20:10 45.27397 21.30739 18230 ft 330 kts 353°
2026-04-29 20:10 45.29657 21.30773 17903 ft 324 kts 353°
2026-04-29 20:10 45.31885 21.30783 17562 ft 320 kts 353°
2026-04-29 20:10 45.34106 21.30791 17231 ft 315 kts 354°
2026-04-29 20:11 45.36280 21.30824 16939 ft 314 kts 354°
2026-04-29 20:11 45.38450 21.30853 16629 ft 314 kts 354°
2026-04-29 20:11 45.40568 21.30871 16301 ft 314 kts 354°
2026-04-29 20:11 45.42520 21.30883 16001 ft 312 kts 354°
2026-04-29 20:12 45.46520 21.30892 15442 ft 321 kts 355°
2026-04-29 20:12 45.48780 21.30894 15102 ft 330 kts 355°
2026-04-29 20:12 45.51100 21.30894 14756 ft 337 kts 355°
2026-04-29 20:13 45.53445 21.30899 14423 ft 339 kts 356°
2026-04-29 20:13 45.55304 21.30899 14121 ft 324 kts 356°
2026-04-29 20:13 45.57375 21.30912 13807 ft 334 kts 358°
2026-04-29 20:13 45.59491 21.31612 13247 ft 338 kts 23°
2026-04-29 20:14 45.61200 21.33829 12969 ft 321 kts 53°
2026-04-29 20:14 45.62220 21.36672 12679 ft 300 kts 62°
2026-04-29 20:14 45.63911 21.41920 12122 ft 315 kts 62°
2026-04-29 20:15 45.64847 21.44884 11808 ft 334 kts 63°
2026-04-29 20:15 45.65719 21.48014 11338 ft 339 kts 72°
2026-04-29 20:15 45.65722 21.51140 11031 ft 332 kts 101°
2026-04-29 20:15 45.65022 21.54252 10702 ft 326 kts 108°
2026-04-29 20:16 45.64262 21.57278 10383 ft 321 kts 108°
2026-04-29 20:16 45.63551 21.60067 10071 ft 313 kts 108°
2026-04-29 20:16 45.62920 21.62553 9785 ft 301 kts 108°
2026-04-29 20:16 45.62158 21.65520 9478 ft 316 kts 109°
2026-04-29 20:17 45.61396 21.68474 9152 ft 319 kts 109°
2026-04-29 20:17 45.60731 21.71335 8798 ft 295 kts 101°
2026-04-29 20:17 45.60693 21.74068 8401 ft 272 kts 77°
2026-04-29 20:17 45.61387 21.76408 7961 ft 253 kts 52°
2026-04-29 20:18 45.62540 21.78068 7580 ft 236 kts 42°
2026-04-29 20:18 45.63276 21.79779 7483 ft 220 kts 69°
2026-04-29 20:18 45.63818 21.81721 7412 ft 219 kts 53°
2026-04-29 20:18 45.64829 21.82858 7188 ft 199 kts 14°
2026-04-29 20:19 45.65961 21.82803 6922 ft 194 kts 336°
2026-04-29 20:19 45.66989 21.81672 6822 ft 219 kts 317°